BREEZE-M DEB (TANK)

Satellite information

Favourite Embed

Satellite Type and Status

DEBRISIN ORBIT

Key statistics

Satellite BREEZE-M DEB (TANK) at a glance.

Uptime

6228

Days in orbit

Revolutions

≈ 5.7

Per day

Orbit

MEO

Medium Earth Orbit

Inclination

46.0

Latest

Satellite identification and parameters

Extended collection of information and parameters for BREEZE-M DEB (TANK).

Object identification

Identified? True

Debris? True

Object name: BREEZE-M DEB (TANK)

International designator: 2008-039B

Object number (NORAD): 33279

Object ID (CCSDS): 33279

Country: COMMONWEALTH OF INDEPENDENT STATES (CIS)

Current information (Y/N): Y

RCS size: LARGE

Orbital parameters

Period: 250.769 minutes

Inclination: 46.0 deg

SMA: 13172.754 km

Apoapsis: 13150.963 km

Periapsis: 438.275 km

RAAN: 291.6379 deg

Eccentricy: 0.48253722

Argument of periapsis: 82.773 deg

Mean anomaly: 327.6839 deg

Mean motion: 5.74232685 rev/day

Mean motion (dot): 0.0000044 rev/day2

B* drag term: 0.00041225244 1/REarth

Two-line elements (TLE)

Creation date: Sept. 5, 2025, 7:38 p.m.

Reference frame: TEME

Reference center: EARTH

Epoch: Sept. 5, 2025, 10:27 a.m. UTC

TLE line 0: 0 BREEZE-M DEB (TANK)

TLE line 1: 1 33279U 08039B 25248.43548410 .00000440 00000-0 41225-3 0 9999

TLE line 2: 2 33279 46.0000 291.6379 4825372 82.7730 327.6839 5.74232685354340

Live tracking on map

Real-time ground track for satellite BREEZE-M DEB (TANK).

In-orbit conjunctions

There are no conjunctions computed for BREEZE-M DEB (TANK), at the moment. Check back to stay up to date, as we update our databases every day.

Go to all conjunctions

Associated space launch

Inmarsat geostationary communications satellite

BREEZE-M DEB (TANK) was lifted into orbit during the mission ‘Proton-M Briz-M | Inmarsat 4 F3’, on board a Proton-M Briz-M space rocket.

The launch took place on Aug. 18, 2008, 10:43 p.m. from 200/39 (200L).

For more information about the launch, click the button.

Launch to space Proton-M Briz-M | Inmarsat 4 F3
Proton-M Briz-M | Inmarsat 4 F3

Agency: N/A

Status: Launch Successful

Launch date: Aug. 18, 2008, 10:43 p.m. UTC

Rocket: Proton-M Briz-M

Launch pad: 200/39 (200L)

Location: Baikonur Cosmodrome, Republic of Kazakhstan

...

Latest news about this satellite

There are no fresh news available about this satellite. Check back as we update our databases every day.


Newsletter sign-up

Weekly statistics, charts and insights to help you stay on top of the space industry.